,,,PA_Meas_PMT16A,,PR_Meas_QMR101_102,,RH_Meas_QMH101,,SR_Meas_QMS101,,TA_Meas_QMH101,,GenWind,,GenWind,
date,time,status,PA,status,PR,status,RH,status,SR,status,TA,status,DirAvg,status,SpdAvg,
2013-02-11, 00:00:04,VALID,1010.16,VALID,0,VALID,104,VALID,0,VALID,23.361,VALID,44,VALID,0.305469,
2013-02-11, 00:01:04,VALID,1010.15,VALID,0,VALID,104,VALID,0,VALID,23.3433,VALID,44,VALID,0.154297,
2013-02-11, 00:02:04,VALID,1010.14,VALID,0,VALID,104,VALID,0,VALID,23.3433,VALID,44,VALID,0.311328,
2013-02-11, 00:03:04,VALID,1010.12,VALID,0,VALID,104,VALID,0,VALID,23.3238,VALID,44,VALID,0.155078,
2013-02-11, 00:04:04,VALID,1010.11,VALID,0,VALID,104,VALID,0,VALID,23.2831,VALID,44,VALID,0.510156,
2013-02-11, 00:05:04,VALID,1010.13,VALID,0,VALID,104,VALID,0,VALID,23.2831,VALID,44,VALID,0.00585938,
2013-02-11, 00:06:04,VALID,1010.09,VALID,0,VALID,104,VALID,0,VALID,23.3043,VALID,44,VALID,0.0722656,
2013-02-11, 00:07:04,VALID,1010.08,VALID,0,VALID,104,VALID,0,VALID,23.3043,VALID,44,VALID,0.0964844,
2013-02-11, 00:08:04,VALID,1010.07,VALID,0,VALID,104,VALID,0.112112,VALID,23.2848,VALID,44,VALID,0.334766,
2013-02-11, 00:09:04,VALID,1010.09,VALID,0,VALID,104,VALID,0.112112,VALID,23.2654,VALID,44,VALID,0.179688,
2013-02-11, 00:10:04,VALID,1010.06,VALID,0,VALID,104,VALID,0,VALID,23.2459,VALID,44,VALID,0.0503906,
2013-02-11, 00:11:04,VALID,1010.03,VALID,0,VALID,104,VALID,0,VALID,23.2264,VALID,44,VALID,0.0597656,
2013-02-11, 00:12:04,VALID,1010.04,VALID,0,VALID,104,VALID,0,VALID,23.2246,VALID,44,VALID,0,
2013-02-11, 00:13:04,VALID,1010,VALID,0,VALID,104,VALID,0.112112,VALID,23.2051,VALID,44,VALID,0,
2013-02-11, 00:14:04,VALID,1010,VALID,0,VALID,104,VALID,0,VALID,23.2051,VALID,44,VALID,0,
2013-02-11, 00:15:04,VALID,1009.97,VALID,0,VALID,104,VALID,0.112112,VALID,23.2051,VALID,44,VALID,0.141016,
2013-02-11, 00:16:04,VALID,1009.98,VALID,0,VALID,104,VALID,0,VALID,23.2069,VALID,44,VALID,0,
2013-02-11, 00:17:04,VALID,1009.97,VALID,0,VALID,104,VALID,0,VALID,23.1874,VALID,43,VALID,0.264062,
2013-02-11, 00:18:04,VALID,1009.91,VALID,0,VALID,104,VALID,0.112112,VALID,23.1679,VALID,43,VALID,0.00585938,
2013-02-11, 00:19:04,VALID,1009.9,VALID,0,VALID,104,VALID,0,VALID,23.1467,VALID,43,VALID,0.106641,
2013-02-11, 00:20:04,VALID,1009.85,VALID,0,VALID,104,VALID,0,VALID,23.1467,VALID,43,VALID,0.321875,
2013-02-11, 00:21:04,VALID,1009.83,VALID,0,VALID,104,VALID,0,VALID,23.1485,VALID,43,VALID,0.317969,
2013-02-11, 00:22:04,VALID,1009.83,VALID,0,VALID,104,VALID,0,VALID,23.1485,VALID,43,VALID,0,
2013-02-11, 00:23:04,VALID,1009.83,VALID,0,VALID,104,VALID,0,VALID,23.1485,VALID,43,VALID,0,
2013-02-11, 00:24:04,VALID,1009.78,VALID,0,VALID,104,VALID,0,VALID,23.1485,VALID,43,VALID,0.351953,
2013-02-11, 00:25:04,VALID,1009.71,VALID,0,VALID,104,VALID,0,VALID,23.1679,VALID,43,VALID,0.276172,
2013-02-11, 00:26:04,VALID,1009.7,VALID,0,VALID,104,VALID,0,VALID,23.129,VALID,43,VALID,0.181641,
2013-02-11, 00:27:04,VALID,1009.69,VALID,0,VALID,104,VALID,0,VALID,23.129,VALID,43,VALID,0,
2013-02-11, 00:28:04,VALID,1009.68,VALID,0,VALID,104,VALID,0,VALID,23.1485,VALID,43,VALID,0.128906,
2013-02-11, 00:29:04,VALID,1009.65,VALID,0,VALID,104,VALID,0,VALID,23.1467,VALID,43,VALID,0,
2013-02-11, 00:30:04,VALID,1009.64,VALID,0,VALID,104,VALID,0,VALID,23.1272,VALID,43,VALID,0,
2013-02-11, 00:31:04,VALID,1009.66,VALID,0,VALID,104,VALID,0,VALID,23.1467,VALID,43,VALID,0,
2013-02-11, 00:32:04,VALID,1009.63,VALID,0,VALID,104,VALID,0.112112,VALID,23.1272,VALID,43,VALID,0,
2013-02-11, 00:33:04,VALID,1009.62,VALID,0,VALID,104,VALID,0.112112,VALID,23.1467,VALID,43,VALID,0,
2013-02-11, 00:34:04,VALID,1009.63,VALID,0,VALID,104,VALID,0,VALID,23.2069,VALID,43,VALID,0,
2013-02-11, 00:35:04,VALID,1009.58,VALID,0,VALID,104,VALID,0.112112,VALID,23.2069,VALID,43,VALID,0,
2013-02-11, 00:36:04,VALID,1009.57,VALID,0,VALID,104,VALID,0.112112,VALID,23.1662,VALID,43,VALID,0.0667969,
2013-02-11, 00:37:04,VALID,1009.53,VALID,0,VALID,104,VALID,0.112112,VALID,23.1874,VALID,43,VALID,0.0285156,
2013-02-11, 00:38:04,VALID,1009.52,VALID,0,VALID,104,VALID,0,VALID,23.1662,VALID,43,VALID,0.241406,
2013-02-11, 00:39:04,VALID,1009.51,VALID,0,VALID,104,VALID,0,VALID,23.1679,VALID,43,VALID,0,
2013-02-11, 00:40:04,VALID,1009.46,VALID,0,VALID,104,VALID,0,VALID,23.1679,VALID,43,VALID,0,
2013-02-11, 00:41:04,VALID,1009.44,VALID,0,VALID,104,VALID,0.112112,VALID,23.1467,VALID,43,VALID,0,
2013-02-11, 00:42:04,VALID,1009.41,VALID,0,VALID,104,VALID,0.112112,VALID,23.1467,VALID,43,VALID,0,
2013-02-11, 00:43:04,VALID,1009.37,VALID,0,VALID,104,VALID,0.112112,VALID,23.1467,VALID,43,VALID,0.316016,
2013-02-11, 00:44:04,VALID,1009.36,VALID,0,VALID,104,VALID,0,VALID,23.1467,VALID,43,VALID,0.382813,
2013-02-11, 00:45:04,VALID,1009.31,VALID,0,VALID,104,VALID,0,VALID,23.1485,VALID,43,VALID,0.341797,
2013-02-11, 00:46:04,VALID,1009.37,VALID,0,VALID,104,VALID,0.112112,VALID,23.1272,VALID,43,VALID,0.314063,
2013-02-11, 00:47:04,VALID,1009.35,VALID,0,VALID,104,VALID,0,VALID,23.1272,VALID,42,VALID,0.356641,
2013-02-11, 00:48:04,VALID,1009.35,VALID,0,VALID,104,VALID,0,VALID,23.129,VALID,42,VALID,0.310937,
2013-02-11, 00:49:04,VALID,1009.33,VALID,0,VALID,104,VALID,0.112112,VALID,23.1485,VALID,44,VALID,0.279687,
2013-02-11, 00:50:04,VALID,1009.35,VALID,0,VALID,104,VALID,0,VALID,23.1485,VALID,42,VALID,0.353516,
2013-02-11, 00:51:04,VALID,1009.33,VALID,0,VALID,104,VALID,0,VALID,23.1679,VALID,43,VALID,0.326953,
2013-02-11, 00:52:04,VALID,1009.32,VALID,0,VALID,104,VALID,0,VALID,23.1662,VALID,43,VALID,0.24375,
2013-02-11, 00:53:04,VALID,1009.34,VALID,0,VALID,104,VALID,0.112112,VALID,23.1679,VALID,44,VALID,0.283203,
2013-02-11, 00:54:04,VALID,1009.36,VALID,0,VALID,104,VALID,0,VALID,23.129,VALID,43,VALID,0.227734,
2013-02-11, 00:55:04,VALID,1009.33,VALID,0,VALID,104,VALID,0,VALID,23.1485,VALID,43,VALID,0.274219,
2013-02-11, 00:56:04,VALID,1009.33,VALID,0,VALID,104,VALID,0,VALID,23.129,VALID,43,VALID,0.252734,
2013-02-11, 00:57:04,VALID,1009.34,VALID,0,VALID,104,VALID,0,VALID,23.1485,VALID,43,VALID,0.0945313,
2013-02-11, 00:58:04,VALID,1009.35,VALID,0,VALID,104,VALID,0,VALID,23.1679,VALID,43,VALID,0.000390625,
2013-02-11, 00:59:04,VALID,1009.34,VALID,0,VALID,104,VALID,0,VALID,23.1662,VALID,43,VALID,0.321875,
2013-02-11, 01:00:04,VALID,1009.32,VALID,0,VALID,104,VALID,0.112112,VALID,23.1874,VALID,43,VALID,0.351172,
2013-02-11, 01:01:04,VALID,1009.33,VALID,0,VALID,104,VALID,0,VALID,23.1857,VALID,43,VALID,0.00195313,
2013-02-11, 01:02:04,VALID,1009.33,VALID,0,VALID,104,VALID,0.112112,VALID,23.1857,VALID,43,VALID,0.00273437,
2013-02-11, 01:03:04,VALID,1009.28,VALID,0,VALID,104,VALID,0.112112,VALID,23.2264,VALID,43,VALID,0.121484,
2013-02-11, 01:04:04,VALID,1009.27,VALID,0,VALID,104,VALID,0.112112,VALID,23.1857,VALID,43,VALID,0.1875,
2013-02-11, 01:05:04,VALID,1009.26,VALID,0,VALID,104,VALID,0.112112,VALID,23.1662,VALID,43,VALID,0.486328,
2013-02-11, 01:06:04,VALID,1009.23,VALID,0,VALID,104,VALID,0,VALID,23.1467,VALID,43,VALID,0.427344,
2013-02-11, 01:07:04,VALID,1009.22,VALID,0,VALID,104,VALID,0,VALID,23.1467,VALID,43,VALID,0.440625,
2013-02-11, 01:08:04,VALID,1009.23,VALID,0,VALID,104,VALID,0.112112,VALID,23.1662,VALID,43,VALID,0.229297,
2013-02-11, 01:09:04,VALID,1009.23,VALID,0,VALID,104,VALID,0.112112,VALID,23.1874,VALID,43,VALID,0.230859,
2013-02-11, 01:10:04,VALID,1009.2,VALID,0,VALID,104,VALID,0,VALID,23.2069,VALID,43,VALID,0.177734,
2013-02-11, 01:11:04,VALID,1009.19,VALID,0,VALID,104,VALID,0,VALID,23.2069,VALID,43,VALID,0.164453,
2013-02-11, 01:12:04,VALID,1009.21,VALID,0,VALID,104,VALID,0,VALID,23.1857,VALID,43,VALID,0.428906,
2013-02-11, 01:13:04,VALID,1009.18,VALID,0,VALID,104,VALID,0,VALID,23.1857,VALID,43,VALID,0.409375,
2013-02-11, 01:14:04,VALID,1009.22,VALID,0,VALID,104,VALID,0.112112,VALID,23.1857,VALID,43,VALID,0.549219,
2013-02-11, 01:15:04,VALID,1009.18,VALID,0,VALID,104,VALID,0.112112,VALID,23.1857,VALID,55,VALID,0.752344,
2013-02-11, 01:16:04,VALID,1009.18,VALID,0,VALID,104,VALID,0.112112,VALID,23.1874,VALID,55,VALID,0.607813,
2013-02-11, 01:17:04,VALID,1009.16,VALID,0,VALID,104,VALID,0,VALID,23.1874,VALID,55,VALID,0.554297,
2013-02-11, 01:18:04,VALID,1009.14,VALID,0,VALID,104,VALID,0,VALID,23.1874,VALID,55,VALID,0.365625,
2013-02-11, 01:19:04,VALID,1009.11,VALID,0,VALID,104,VALID,0,VALID,23.1874,VALID,55,VALID,0.166016,
2013-02-11, 01:20:04,VALID,1009.14,VALID,0,VALID,104,VALID,0,VALID,23.1892,VALID,55,VALID,0.30625,
2013-02-11, 01:21:04,VALID,1009.11,VALID,0,VALID,104,VALID,0,VALID,23.1874,VALID,55,VALID,0.467578,
2013-02-11, 01:22:04,VALID,1009.08,VALID,0,VALID,104,VALID,0,VALID,23.1679,VALID,55,VALID,0.302734,
2013-02-11, 01:23:04,VALID,1009.06,VALID,0,VALID,104,VALID,0,VALID,23.1485,VALID,55,VALID,0.208203,
2013-02-11, 01:24:04,VALID,1009.06,VALID,0,VALID,104,VALID,0,VALID,23.1502,VALID,55,VALID,0.108594,
2013-02-11, 01:25:04,VALID,1009.07,VALID,0,VALID,104,VALID,0,VALID,23.1679,VALID,55,VALID,0.408203,
2013-02-11, 01:26:04,VALID,1009.07,VALID,0,VALID,104,VALID,0,VALID,23.1485,VALID,55,VALID,0.254687,
2013-02-11, 01:27:04,VALID,1009.06,VALID,0,VALID,104,VALID,0,VALID,23.1697,VALID,55,VALID,0.260547,
2013-02-11, 01:28:04,VALID,1009.05,VALID,0,VALID,104,VALID,0,VALID,23.1485,VALID,55,VALID,0.0121094,
2013-02-11, 01:29:04,VALID,1009.03,VALID,0,VALID,104,VALID,0,VALID,23.1697,VALID,55,VALID,0.358984,
2013-02-11, 01:30:04,VALID,1009.04,VALID,0,VALID,104,VALID,0,VALID,23.1697,VALID,55,VALID,0.198828,
2013-02-11, 01:31:04,VALID,1009.01,VALID,0,VALID,104,VALID,0,VALID,23.1485,VALID,55,VALID,0.132422,
2013-02-11, 01:32:04,VALID,1009.02,VALID,0,VALID,104,VALID,0,VALID,23.1485,VALID,55,VALID,0,
2013-02-11, 01:33:04,VALID,1009.01,VALID,0,VALID,104,VALID,0,VALID,23.1485,VALID,55,VALID,0,
2013-02-11, 01:34:04,VALID,1008.99,VALID,0,VALID,104,VALID,0.112112,VALID,23.1467,VALID,55,VALID,0,
2013-02-11, 01:35:04,VALID,1009.03,VALID,0,VALID,104,VALID,0,VALID,23.1485,VALID,55,VALID,0,
2013-02-11, 01:36:04,VALID,1009.03,VALID,0,VALID,104,VALID,0.112112,VALID,23.1272,VALID,55,VALID,0,
2013-02-11, 01:37:04,VALID,1009.02,VALID,0,VALID,104,VALID,0.112112,VALID,23.1485,VALID,55,VALID,0,
2013-02-11, 01:38:04,VALID,1009,VALID,0,VALID,104,VALID,0,VALID,23.129,VALID,55,VALID,0,
2013-02-11, 01:39:04,VALID,1009.03,VALID,0,VALID,104,VALID,0,VALID,23.1485,VALID,55,VALID,0,
2013-02-11, 01:40:04,VALID,1009.02,VALID,0,VALID,104,VALID,0.112112,VALID,23.1272,VALID,55,VALID,0,
2013-02-11, 01:41:04,VALID,1009.01,VALID,0,VALID,104,VALID,0.112112,VALID,23.1272,VALID,55,VALID,0,
2013-02-11, 01:42:04,VALID,1009.03,VALID,0,VALID,104,VALID,0,VALID,23.1467,VALID,55,VALID,0,
2013-02-11, 01:43:04,VALID,1009.03,VALID,0,VALID,104,VALID,0.112112,VALID,23.1467,VALID,55,VALID,0,
2013-02-11, 01:44:04,VALID,1009.02,VALID,0,VALID,104,VALID,0,VALID,23.1467,VALID,55,VALID,0,
2013-02-11, 01:45:04,VALID,1009.02,VALID,0,VALID,104,VALID,0.112112,VALID,23.1874,VALID,55,VALID,0,
2013-02-11, 01:46:04,VALID,1009.05,VALID,0,VALID,104,VALID,0,VALID,23.1662,VALID,55,VALID,0,
2013-02-11, 01:47:04,VALID,1009.04,VALID,0,VALID,104,VALID,0.112112,VALID,23.1467,VALID,55,VALID,0,
2013-02-11, 01:48:04,VALID,1009.02,VALID,0,VALID,104,VALID,0.112112,VALID,23.1467,VALID,55,VALID,0,
2013-02-11, 01:49:04,VALID,1009,VALID,0,VALID,104,VALID,0,VALID,23.1874,VALID,55,VALID,0,
2013-02-11, 01:50:04,VALID,1009,VALID,0,VALID,104,VALID,0,VALID,23.1679,VALID,55,VALID,0,
2013-02-11, 01:51:04,VALID,1009.02,VALID,0,VALID,104,VALID,0,VALID,23.1662,VALID,55,VALID,0,
2013-02-11, 01:52:04,VALID,1009.01,VALID,0,VALID,104,VALID,0,VALID,23.1874,VALID,55,VALID,0,
2013-02-11, 01:53:04,VALID,1008.98,VALID,0,VALID,104,VALID,0.112112,VALID,23.1662,VALID,55,VALID,0,
2013-02-11, 01:54:04,VALID,1008.97,VALID,0,VALID,104,VALID,0,VALID,23.1679,VALID,55,VALID,0,
2013-02-11, 01:55:04,VALID,1008.93,VALID,0,VALID,104,VALID,0,VALID,23.129,VALID,55,VALID,0,
2013-02-11, 01:56:04,VALID,1008.91,VALID,0,VALID,104,VALID,0,VALID,23.1485,VALID,55,VALID,0,
2013-02-11, 01:57:04,VALID,1008.87,VALID,0,VALID,104,VALID,0,VALID,23.1485,VALID,55,VALID,0,
2013-02-11, 01:58:04,VALID,1008.86,VALID,0,VALID,104,VALID,0,VALID,23.1485,VALID,55,VALID,0,
2013-02-11, 01:59:04,VALID,1008.84,VALID,0,VALID,104,VALID,0,VALID,23.1485,VALID,55,VALID,0,
2013-02-11, 02:00:04,VALID,1008.81,VALID,0,VALID,104,VALID,0.112112,VALID,23.1077,VALID,55,VALID,0,
2013-02-11, 02:01:04,VALID,1008.78,VALID,0,VALID,104,VALID,0,VALID,23.129,VALID,55,VALID,0,
2013-02-11, 02:02:04,VALID,1008.76,VALID,0,VALID,104,VALID,0,VALID,23.1095,VALID,55,VALID,0,
2013-02-11, 02:03:04,VALID,1008.76,VALID,0,VALID,104,VALID,0.112112,VALID,23.1095,VALID,55,VALID,0,
2013-02-11, 02:04:04,VALID,1008.72,VALID,0,VALID,104,VALID,0,VALID,23.0705,VALID,56,VALID,0,
2013-02-11, 02:05:04,VALID,1008.71,VALID,0,VALID,104,VALID,0,VALID,23.09,VALID,55,VALID,0,
2013-02-11, 02:06:04,VALID,1008.68,VALID,0,VALID,104,VALID,0.112112,VALID,23.0511,VALID,56,VALID,0,
2013-02-11, 02:07:04,VALID,1008.68,VALID,0,VALID,104,VALID,0,VALID,23.0511,VALID,55,VALID,0,
2013-02-11, 02:08:04,VALID,1008.64,VALID,0,VALID,104,VALID,0,VALID,23.0316,VALID,55,VALID,0,
2013-02-11, 02:09:04,VALID,1008.61,VALID,0,VALID,104,VALID,0,VALID,23.0103,VALID,55,VALID,0,
2013-02-11, 02:10:04,VALID,1008.62,VALID,0,VALID,104,VALID,0,VALID,23.0316,VALID,55,VALID,0,
2013-02-11, 02:11:04,VALID,1008.65,VALID,0,VALID,104,VALID,0.112112,VALID,23.0298,VALID,55,VALID,0,
2013-02-11, 02:12:04,VALID,1008.59,VALID,0,VALID,104,VALID,0,VALID,23.0316,VALID,55,VALID,0,
2013-02-11, 02:13:04,VALID,1008.62,VALID,0,VALID,104,VALID,0.112112,VALID,23.0511,VALID,55,VALID,0,
2013-02-11, 02:14:04,VALID,1008.61,VALID,0,VALID,104,VALID,0.112112,VALID,23.0316,VALID,55,VALID,0,
2013-02-11, 02:15:04,VALID,1008.6,VALID,0,VALID,104,VALID,0,VALID,23.0511,VALID,55,VALID,0,
2013-02-11, 02:16:04,VALID,1008.62,VALID,0,VALID,104,VALID,0,VALID,23.0316,VALID,55,VALID,0,
2013-02-11, 02:17:04,VALID,1008.61,VALID,0,VALID,104,VALID,0,VALID,23.0103,VALID,55,VALID,0,
2013-02-11, 02:18:04,VALID,1008.58,VALID,0,VALID,104,VALID,0,VALID,23.0316,VALID,55,VALID,0,
2013-02-11, 02:19:04,VALID,1008.59,VALID,0,VALID,104,VALID,0,VALID,23.0121,VALID,55,VALID,0,
2013-02-11, 02:20:04,VALID,1008.58,VALID,0,VALID,104,VALID,0,VALID,22.9926,VALID,55,VALID,0,
2013-02-11, 02:21:04,VALID,1008.58,VALID,0,VALID,104,VALID,0,VALID,22.9909,VALID,55,VALID,0,
2013-02-11, 02:22:04,VALID,1008.54,VALID,0,VALID,104,VALID,0,VALID,22.9909,VALID,55,VALID,0,
2013-02-11, 02:23:04,VALID,1008.53,VALID,0,VALID,104,VALID,0,VALID,22.9714,VALID,55,VALID,0,
2013-02-11, 02:24:04,VALID,1008.53,VALID,0,VALID,104,VALID,0,VALID,23.0121,VALID,55,VALID,0,
2013-02-11, 02:25:04,VALID,1008.49,VALID,0,VALID,104,VALID,0.112112,VALID,22.9909,VALID,55,VALID,0,
2013-02-11, 02:26:04,VALID,1008.51,VALID,0,VALID,104,VALID,0,VALID,23.0121,VALID,55,VALID,0,
2013-02-11, 02:27:04,VALID,1008.49,VALID,0,VALID,104,VALID,0,VALID,23.0121,VALID,56,VALID,0,
2013-02-11, 02:28:04,VALID,1008.49,VALID,0,VALID,104,VALID,0,VALID,22.9926,VALID,42,VALID,0,
2013-02-11, 02:29:04,VALID,1008.51,VALID,0,VALID,104,VALID,0,VALID,22.9519,VALID,42,VALID,0,
2013-02-11, 02:30:04,VALID,1008.54,VALID,0,VALID,104,VALID,0.112112,VALID,22.9926,VALID,43,VALID,0,
2013-02-11, 02:31:04,VALID,1008.56,VALID,0,VALID,104,VALID,0,VALID,22.9731,VALID,43,VALID,0,
2013-02-11, 02:32:04,VALID,1008.56,VALID,0,VALID,104,VALID,0,VALID,22.9731,VALID,43,VALID,0,
2013-02-11, 02:33:04,VALID,1008.6,VALID,0,VALID,104,VALID,0,VALID,22.9731,VALID,43,VALID,0,
2013-02-11, 02:34:04,VALID,1008.61,VALID,0,VALID,104,VALID,0,VALID,22.9731,VALID,43,VALID,0,
2013-02-11, 02:35:04,VALID,1008.61,VALID,0,VALID,104,VALID,0.112112,VALID,22.9731,VALID,38,VALID,0,
2013-02-11, 02:36:04,VALID,1008.61,VALID,0,VALID,104,VALID,0,VALID,22.9536,VALID,40,VALID,0,
2013-02-11, 02:37:04,VALID,1008.63,VALID,0,VALID,104,VALID,0,VALID,22.9324,VALID,38,VALID,0,
2013-02-11, 02:38:04,VALID,1008.65,VALID,0,VALID,104,VALID,0,VALID,22.9342,VALID,31,VALID,0,
2013-02-11, 02:39:04,VALID,1008.66,VALID,0,VALID,104,VALID,0,VALID,22.9324,VALID,32,VALID,0,
2013-02-11, 02:40:04,VALID,1008.65,VALID,0,VALID,104,VALID,0,VALID,22.9342,VALID,36,VALID,0,
2013-02-11, 02:41:04,VALID,1008.65,VALID,0,VALID,104,VALID,0,VALID,22.9342,VALID,37,VALID,0,
2013-02-11, 02:42:04,VALID,1008.66,VALID,0,VALID,104,VALID,0,VALID,22.9342,VALID,36,VALID,0,
2013-02-11, 02:43:04,VALID,1008.64,VALID,0,VALID,104,VALID,0,VALID,22.9342,VALID,38,VALID,0,
2013-02-11, 02:44:04,VALID,1008.64,VALID,0,VALID,104,VALID,0,VALID,22.9536,VALID,37,VALID,0,
2013-02-11, 02:45:04,VALID,1008.63,VALID,0,VALID,104,VALID,0,VALID,22.9536,VALID,37,VALID,0,
2013-02-11, 02:46:04,VALID,1008.64,VALID,0,VALID,104,VALID,0,VALID,22.9731,VALID,38,VALID,0,
2013-02-11, 02:47:04,VALID,1008.63,VALID,0,VALID,104,VALID,0,VALID,22.9536,VALID,33,VALID,0,
2013-02-11, 02:48:04,VALID,1008.65,VALID,0,VALID,104,VALID,0.112112,VALID,22.9519,VALID,33,VALID,0,
2013-02-11, 02:49:04,VALID,1008.63,VALID,0,VALID,104,VALID,0.112112,VALID,22.9519,VALID,64,VALID,0,
2013-02-11, 02:50:04,VALID,1008.65,VALID,0,VALID,104,VALID,0,VALID,22.9519,VALID,64,VALID,0,
2013-02-11, 02:51:04,VALID,1008.65,VALID,0,VALID,104,VALID,0,VALID,22.9731,VALID,64,VALID,0,
2013-02-11, 02:52:04,VALID,1008.64,VALID,0,VALID,104,VALID,0,VALID,22.9731,VALID,64,VALID,0,
2013-02-11, 02:53:04,VALID,1008.65,VALID,0,VALID,104,VALID,0,VALID,22.9731,VALID,64,VALID,0,
2013-02-11, 02:54:04,VALID,1008.63,VALID,0,VALID,104,VALID,0.112112,VALID,22.9519,VALID,62,VALID,0,
2013-02-11, 02:55:04,VALID,1008.64,VALID,0,VALID,104,VALID,0.112112,VALID,22.9731,VALID,63,VALID,0,
2013-02-11, 02:56:04,VALID,1008.65,VALID,0,VALID,104,VALID,0.112112,VALID,22.9536,VALID,64,VALID,0,
2013-02-11, 02:57:04,VALID,1008.63,VALID,0,VALID,104,VALID,0,VALID,22.9731,VALID,64,VALID,0,
2013-02-11, 02:58:04,VALID,1008.64,VALID,0,VALID,104,VALID,0,VALID,22.9536,VALID,32,VALID,0,
2013-02-11, 02:59:04,VALID,1008.64,VALID,0,VALID,104,VALID,0.112112,VALID,22.9519,VALID,32,VALID,0,
2013-02-11, 03:00:04,VALID,1008.64,VALID,0,VALID,104,VALID,0,VALID,22.9536,VALID,32,VALID,0,
2013-02-11, 03:01:04,VALID,1008.62,VALID,0,VALID,104,VALID,0,VALID,22.9324,VALID,32,VALID,0,
2013-02-11, 03:02:04,VALID,1008.66,VALID,0,VALID,104,VALID,0,VALID,22.9536,VALID,32,VALID,0,
2013-02-11, 03:03:04,VALID,1008.66,VALID,0,VALID,104,VALID,0.112112,VALID,22.9731,VALID,32,VALID,0,
2013-02-11, 03:04:04,VALID,1008.67,VALID,0,VALID,104,VALID,0.112112,VALID,22.9536,VALID,32,VALID,0,
2013-02-11, 03:05:04,VALID,1008.69,VALID,0,VALID,104,VALID,0.112112,VALID,22.9536,VALID,32,VALID,0,
2013-02-11, 03:06:04,VALID,1008.69,VALID,0,VALID,104,VALID,0.112112,VALID,22.9536,VALID,32,VALID,0,
2013-02-11, 03:07:04,VALID,1008.68,VALID,0,VALID,104,VALID,0,VALID,22.9324,VALID,32,VALID,0,
2013-02-11, 03:08:04,VALID,1008.67,VALID,0,VALID,104,VALID,0,VALID,22.9342,VALID,32,VALID,0,
2013-02-11, 03:09:04,VALID,1008.67,VALID,0,VALID,104,VALID,0,VALID,22.9342,VALID,32,VALID,0,
2013-02-11, 03:10:04,VALID,1008.64,VALID,0,VALID,104,VALID,0.112112,VALID,22.9536,VALID,32,VALID,0,
2013-02-11, 03:11:04,VALID,1008.63,VALID,0,VALID,104,VALID,0,VALID,22.9342,VALID,32,VALID,0,
2013-02-11, 03:12:04,VALID,1008.64,VALID,0,VALID,104,VALID,0,VALID,22.9147,VALID,32,VALID,0,
2013-02-11, 03:13:04,VALID,1008.64,VALID,0,VALID,104,VALID,0.112112,VALID,22.9342,VALID,32,VALID,0,
2013-02-11, 03:14:04,VALID,1008.6,VALID,0,VALID,104,VALID,0,VALID,22.9147,VALID,32,VALID,0,
2013-02-11, 03:15:04,VALID,1008.64,VALID,0,VALID,104,VALID,0,VALID,22.9147,VALID,32,VALID,0,
2013-02-11, 03:16:04,VALID,1008.62,VALID,0,VALID,104,VALID,0,VALID,22.9147,VALID,32,VALID,0,
2013-02-11, 03:17:04,VALID,1008.63,VALID,0,VALID,104,VALID,0,VALID,22.9147,VALID,32,VALID,0,
2013-02-11, 03:18:04,VALID,1008.65,VALID,0,VALID,104,VALID,0.112112,VALID,22.9147,VALID,32,VALID,0,
2013-02-11, 03:19:04,VALID,1008.66,VALID,0,VALID,104,VALID,0,VALID,22.9147,VALID,32,VALID,0,
2013-02-11, 03:20:04,VALID,1008.69,VALID,0,VALID,104,VALID,0,VALID,22.8952,VALID,32,VALID,0,
2013-02-11, 03:21:04,VALID,1008.69,VALID,0,VALID,104,VALID,0,VALID,22.8952,VALID,32,VALID,0,
2013-02-11, 03:22:04,VALID,1008.66,VALID,0,VALID,104,VALID,0,VALID,22.9342,VALID,32,VALID,0,
2013-02-11, 03:23:04,VALID,1008.68,VALID,0,VALID,104,VALID,0,VALID,22.9342,VALID,32,VALID,0,
2013-02-11, 03:24:04,VALID,1008.66,VALID,0,VALID,104,VALID,0,VALID,22.9147,VALID,32,VALID,0,
2013-02-11, 03:25:04,VALID,1008.67,VALID,0,VALID,104,VALID,0,VALID,22.8935,VALID,32,VALID,0,
2013-02-11, 03:26:04,VALID,1008.69,VALID,0,VALID,104,VALID,0,VALID,22.9129,VALID,32,VALID,0,
2013-02-11, 03:27:04,VALID,1008.71,VALID,0,VALID,104,VALID,0.112112,VALID,22.9129,VALID,32,VALID,0,
2013-02-11, 03:28:04,VALID,1008.71,VALID,0,VALID,104,VALID,0.112112,VALID,22.9129,VALID,32,VALID,0,
2013-02-11, 03:29:04,VALID,1008.69,VALID,0,VALID,104,VALID,0,VALID,22.9342,VALID,32,VALID,0,
2013-02-11, 03:30:04,VALID,1008.69,VALID,0,VALID,104,VALID,0.112112,VALID,22.9129,VALID,32,VALID,0,
2013-02-11, 03:31:04,VALID,1008.7,VALID,0,VALID,104,VALID,0.112112,VALID,22.9129,VALID,32,VALID,0,
2013-02-11, 03:32:04,VALID,1008.72,VALID,0,VALID,104,VALID,0.112112,VALID,22.9129,VALID,32,VALID,0,
2013-02-11, 03:33:04,VALID,1008.74,VALID,0,VALID,104,VALID,0,VALID,22.9342,VALID,32,VALID,0,
2013-02-11, 03:34:04,VALID,1008.74,VALID,0,VALID,104,VALID,0.112112,VALID,22.9129,VALID,32,VALID,0,
2013-02-11, 03:35:04,VALID,1008.73,VALID,0,VALID,104,VALID,0.112112,VALID,22.9342,VALID,32,VALID,0,
2013-02-11, 03:36:04,VALID,1008.74,VALID,0,VALID,104,VALID,0.112112,VALID,22.9147,VALID,32,VALID,0,
2013-02-11, 03:37:04,VALID,1008.75,VALID,0,VALID,104,VALID,0,VALID,22.9342,VALID,32,VALID,0,
2013-02-11, 03:38:04,VALID,1008.76,VALID,0,VALID,104,VALID,0,VALID,22.9147,VALID,32,VALID,0,
2013-02-11, 03:39:04,VALID,1008.76,VALID,0,VALID,104,VALID,0,VALID,22.9342,VALID,32,VALID,0,
2013-02-11, 03:40:04,VALID,1008.74,VALID,0,VALID,104,VALID,0,VALID,22.9147,VALID,32,VALID,0,
2013-02-11, 03:41:04,VALID,1008.71,VALID,0,VALID,104,VALID,0,VALID,22.9342,VALID,32,VALID,0,
2013-02-11, 03:42:04,VALID,1008.7,VALID,0,VALID,104,VALID,0.112112,VALID,22.9342,VALID,32,VALID,0,
2013-02-11, 03:43:04,VALID,1008.72,VALID,0,VALID,104,VALID,0,VALID,22.9731,VALID,32,VALID,0,
2013-02-11, 03:44:04,VALID,1008.71,VALID,0,VALID,104,VALID,0.112112,VALID,22.9519,VALID,32,VALID,0,
2013-02-11, 03:45:04,VALID,1008.68,VALID,0,VALID,104,VALID,0.112112,VALID,22.9731,VALID,32,VALID,0,
2013-02-11, 03:46:04,VALID,1008.71,VALID,0,VALID,104,VALID,0.112112,VALID,22.9519,VALID,32,VALID,0,
2013-02-11, 03:47:04,VALID,1008.7,VALID,0,VALID,104,VALID,0.112112,VALID,22.9536,VALID,32,VALID,0,
2013-02-11, 03:48:04,VALID,1008.71,VALID,0,VALID,104,VALID,0.112112,VALID,22.9731,VALID,32,VALID,0,
2013-02-11, 03:49:04,VALID,1008.69,VALID,0,VALID,104,VALID,0.112112,VALID,22.9731,VALID,32,VALID,0,
2013-02-11, 03:50:04,VALID,1008.7,VALID,0,VALID,104,VALID,0,VALID,22.9536,VALID,32,VALID,0,
2013-02-11, 03:51:04,VALID,1008.7,VALID,0,VALID,104,VALID,0,VALID,22.9536,VALID,32,VALID,0,
2013-02-11, 03:52:04,VALID,1008.66,VALID,0,VALID,104,VALID,0,VALID,22.9519,VALID,32,VALID,0,
2013-02-11, 03:53:04,VALID,1008.7,VALID,0,VALID,104,VALID,0,VALID,22.9536,VALID,32,VALID,0,
2013-02-11, 03:54:04,VALID,1008.66,VALID,0,VALID,104,VALID,0.112112,VALID,22.9731,VALID,32,VALID,0,
2013-02-11, 03:55:04,VALID,1008.64,VALID,0,VALID,104,VALID,0,VALID,22.9926,VALID,32,VALID,0,
2013-02-11, 03:56:04,VALID,1008.63,VALID,0,VALID,104,VALID,0,VALID,22.9714,VALID,32,VALID,0,
2013-02-11, 03:57:04,VALID,1008.62,VALID,0,VALID,104,VALID,0,VALID,23.0121,VALID,12,VALID,0,
2013-02-11, 03:58:04,VALID,1008.6,VALID,0,VALID,104,VALID,0.112112,VALID,23.0121,VALID,12,VALID,0,
2013-02-11, 03:59:04,VALID,1008.61,VALID,0,VALID,104,VALID,0,VALID,23.0121,VALID,5,VALID,0,
2013-02-11, 04:00:04,VALID,1008.59,VALID,0,VALID,104,VALID,0.112112,VALID,22.9714,VALID,360,VALID,0,
2013-02-11, 04:01:04,VALID,1008.57,VALID,0,VALID,104,VALID,0.112112,VALID,22.9926,VALID,325,VALID,0,